Retour au catalogue

ATLAS 5 CENTAUR DEB

ActifHEO
NORAD 52972·DEBRIS·🇺🇸 United States

Lancé Oct 17, 2018 depuis Cape Canaveral Space Force Station

Loading…

Prochains Passages (prochaines 24 heures)

TLE

VieillissantSource: Space-Track

Époque: Aug 29, 2026, 13:05 UTC

1 52972U 18079GW  26241.54562823 -.00000116  00000-0  00000-0 0  9999
2 52972  13.3000  10.3458 4480232  12.3269 355.6516  1.93875165 35825

Suivez ATLAS 5 CENTAUR DEB en temps réel avec AllMySat

Download on the App Store